Dewpoint
59 59 59 59 58 57 57 57 56 56 55 55 55 55 55 56 54 48 39 42 47 55 54 40 35 33 31 31 27 23 21 16 16 21 32 44 43 51 55 53 54 57 57 60 59
60 60 60 59 58 57 57 57 56 56 56 55 55 55 55 55 50 44 48 53 55 57 34 30 31 29 26 26 28 25 23 18 18 19 33 42 44 48 51 52 53 57 60 60 58
61 60 60 59 58 57 57 56 56 55 55 55 55 55 55 53 41 37 58 56 57 55 33 32 31 24 22 24 24 22 21 21 20 20 39 43 43 47 50 49 52 56 57 58 58
58 60 60 59 58 57 57 56 56 55 55 54 54 55 54 49 29 33 61 58 58 50 33 30 28 26 23 21 22 21 22 21 21 31 42 41 45 44 47 48 54 57 57 58 58
56 57 58 59 58 57 56 56 55 55 54 54 54 54 49 32 19 55 61 59 53 41 30 28 28 28 26 23 21 22 21 20 21 38 44 44 43 47 52 55 57 57 57 57 57
55 56 57 59 58 57 57 56 55 55 54 54 54 53 44 25 45 54 53 48 43 37 32 30 31 31 28 28 22 24 21 25 35 41 41 43 46 47 53 55 55 55 54 56 57
54 55 56 57 58 57 56 55 55 54 54 54 53 48 42 26 43 50 45 40 41 35 28 30 33 30 30 29 29 28 24 30 37 40 40 39 40 47 53 53 53 53 54 56 55
54 54 54 55 56 57 56 55 54 54 54 54 52 47 37 36 42 41 44 40 36 37 33 31 33 31 30 31 27 21 23 27 32 37 39 36 37 50 53 53 52 53 54 55 53
54 53 53 54 55 56 55 54 54 54 54 53 48 47 30 40 34 38 41 35 33 33 33 30 32 30 30 26 22 23 17 26 30 36 37 34 39 47 52 52 50 52 53 52 52
53 53 54 54 54 55 54 53 53 51 51 50 46 38 30 24 35 42 41 37 33 33 32 31 30 28 27 23 19 21 20 23 28 30 35 34 40 48 52 53 52 51 51 52 51
52 53 54 53 55 54 51 47 40 42 46 40 35 29 21 33 41 36 40 37 34 32 30 29 27 26 26 27 24 25 21 20 22 24 33 34 38 45 50 51 52 52 54 52 50
51 52 52 52 55 53 50 44 42 45 42 43 42 37 34 40 38 38 38 34 33 29 29 28 27 27 26 26 26 25 22 22 23 22 28 28 33 41 47 49 50 51 52 53 52
51 51 51 51 54 52 48 45 48 48 44 40 42 41 40 40 38 36 35 32 30 28 29 28 25 27 26 25 25 25 24 24 23 22 27 30 27 40 42 47 47 48 50 52 54
50 51 51 52 51 49 46 49 50 50 32 29 36 40 42 42 36 37 32 30 27 28 29 27 26 26 26 25 25 22 25 25 24 21 19 23 15 27 40 41 42 45 46 49 51
49 51 50 53 49 47 48 49 50 48 20 26 40 41 42 33 29 32 31 28 26 26 27 25 27 27 25 25 27 24 29 26 25 23 25 24 19 20 34 39 40 42 44 46 49
49 48 49 51 51 49 50 52 52 37 21 20 36 38 37 31 28 28 29 29 28 26 28 25 27 28 27 26 27 29 27 27 28 27 23 23 21 21 26 34 38 41 43 44 47
48 48 48 51 47 52 53 50 38 32 28 21 32 31 30 26 27 26 28 26 24 24 24 23 24 27 31 26 28 27 28 23 20 23 22 27 25 25 26 28 33 38 42 44 45
48 48 49 47 53 51 51 43 34 31 29 31 29 28 28 25 26 26 26 26 23 23 23 22 21 25 30 27 26 27 27 26 18 21 18 28 25 19 27 30 31 31 34 39 43
47 47 47 49 50 50 47 35 29 32 33 31 25 26 24 24 23 26 26 26 25 25 24 25 21 26 32 32 27 26 26 27 28 30 27 23 24 24 22 26 34 36 36 37 36
45 44 42 48 51 49 42 33 35 36 37 38 29 28 25 26 25 23 26 26 24 25 28 28 22 31 31 32 31 27 28 26 28 22 19 21 23 21 23 23 28 33 36 37 41
44 39 41 48 51 44 33 33 34 37 38 38 37 35 29 28 26 26 25 24 26 24 26 28 27 26 31 29 27 27 27 27 27 27 22 20 19 27 26 26 29 29 32 38 40
41 33 44 46 37 38 33 34 37 34 39 37 39 39 38 31 28 27 27 28 28 29 27 32 31 27 26 28 29 28 28 28 30 23 26 26 22 25 29 28 29 28 29 35 40
37 37 45 43 31 33 35 33 34 35 34 36 37 39 39 34 27 29 28 31 33 30 31 33 28 25 22 23 29 28 27 28 28 29 26 30 24 24 26 27 28 28 27 29 37
39 32 40 41 35 32 32 33 33 36 34 36 37 39 37 35 34 29 29 34 35 32 40 35 29 27 21 23 26 28 28 28 29 28 28 27 25 25 26 25 26 29 29 29 40
40 35 37 32 33 34 32 31 31 32 36 36 35 34 37 33 32 31 35 38 37 41 35 35 28 27 24 22 26 26 26 27 25 28 28 27 25 25 27 28 27 28 36 40 42
36 36 38 34 33 32 33 31 31 32 32 35 33 34 34 36 35 31 35 36 35 37 35 34 30 28 26 28 27 28 27 27 27 26 26 25 25 28 28 27 29 32 37 37 37
41 40 39 33 33 31 29 31 32 34 35 34 34 34 36 35 39 38 37 37 38 36 35 34 33 30 25 28 28 28 30 28 28 28 29 27 30 28 28 31 31 35 34 34 34
Lifted_Index
5 5 5 5 6 7 8 9 9 9 10 10 10 10 10 10 9 8 7 8 8 8 7 7 6 6 5 4 3 2 1 -0 -0 0 -0 -2 -3 -3 -3 -4 -4 -4 -3 -3 -3
5 5 5 5 5 6 7 8 9 9 9 10 10 10 10 10 9 7 7 8 8 7 7 7 6 6 4 3 2 2 1 0 1 1 0 -1 -2 -3 -3 -3 -3 -4 -3 -3 -2
5 4 4 4 4 5 6 7 9 9 9 10 10 10 10 10 8 7 6 7 7 7 7 7 6 5 4 3 2 1 1 1 1 1 0 -1 -1 -2 -3 -3 -3 -3 -3 -2 -2
5 5 5 4 4 5 5 7 8 9 9 10 10 10 10 9 7 6 6 6 7 6 6 6 5 4 3 2 1 1 1 1 1 1 -0 -1 -1 -2 -2 -2 -3 -3 -3 -2 -1
6 6 5 5 5 5 5 6 8 9 10 10 10 10 9 8 7 6 6 6 7 6 6 4 3 2 2 1 0 0 0 1 1 1 -1 -1 -1 -2 -2 -3 -3 -3 -2 -1 -1
8 7 6 5 5 5 5 5 7 9 9 10 9 9 9 8 7 6 6 7 7 6 5 4 2 2 1 0 0 0 1 1 1 -0 -1 -1 -2 -2 -3 -3 -3 -3 -2 -1 -1
9 9 7 6 5 5 5 5 6 8 9 10 9 9 8 8 7 6 6 7 7 6 5 4 2 2 1 0 0 0 0 1 0 -1 -1 -2 -2 -3 -3 -3 -3 -2 -2 -2 -1
10 10 9 7 6 5 5 5 6 7 9 9 9 8 8 9 8 6 6 6 6 6 5 3 2 2 1 0 0 0 0 -0 -0 -1 -1 -2 -2 -3 -3 -3 -2 -2 -2 -2 -1
10 10 10 8 7 6 6 5 6 7 9 9 9 8 8 8 8 6 5 5 5 4 4 3 2 2 1 1 -0 -0 -0 -0 -1 -1 -1 -2 -2 -3 -3 -3 -2 -2 -2 -2 -1
10 10 10 8 7 6 6 6 7 8 8 8 7 7 8 8 7 6 6 5 5 4 3 2 2 2 1 1 -0 -0 -0 -0 -1 -1 -1 -1 -2 -3 -3 -3 -3 -3 -2 -2 -2
10 10 9 9 7 6 6 6 7 8 8 7 7 7 7 7 7 6 6 6 5 4 3 3 2 2 1 1 -0 -0 -0 -0 -0 -0 -0 -1 -2 -2 -3 -3 -3 -3 -3 -3 -2
10 10 10 9 8 6 6 6 7 8 7 7 7 7 7 7 6 6 6 5 5 4 3 3 2 2 1 0 -0 -0 -0 -0 0 0 0 -0 -1 -2 -3 -3 -3 -4 -4 -3 -3
9 9 9 9 8 7 6 6 7 7 7 7 7 6 6 6 6 6 6 5 5 4 3 3 2 1 1 0 -0 -0 -0 -0 0 0 0 0 -0 -1 -2 -3 -3 -4 -4 -4 -3
9 9 9 9 7 6 6 6 6 6 6 6 6 6 5 5 5 5 5 5 4 4 3 3 2 2 1 1 0 -0 -0 0 0 0 0 1 1 -0 -1 -2 -3 -3 -3 -3 -3
8 8 9 8 7 6 5 5 5 5 5 6 6 5 5 5 5 5 5 5 4 4 3 3 2 2 2 1 0 0 0 0 1 1 1 1 1 1 -0 -2 -3 -3 -3 -3 -3
8 8 8 8 6 5 4 4 4 5 5 5 6 5 5 4 4 4 4 4 4 4 4 3 2 2 2 1 1 1 1 1 1 1 1 1 1 1 1 -0 -1 -2 -2 -3 -3
8 8 8 7 5 4 3 3 4 5 6 6 5 5 5 4 4 4 4 4 4 4 4 3 2 2 2 2 1 1 1 1 1 1 1 1 1 1 1 1 0 -0 -1 -1 -2
8 8 7 7 5 3 2 3 5 6 7 6 5 4 4 5 4 4 4 4 4 4 3 3 2 2 2 2 1 1 1 1 1 1 1 2 2 2 2 1 1 1 0 -0 -0
7 7 8 7 4 2 2 4 6 7 6 5 4 4 4 4 4 4 4 4 4 3 3 3 2 2 1 1 1 1 0 0 1 1 1 2 2 2 2 1 1 1 1 1 0
6 7 8 7 4 2 2 5 7 6 5 3 3 4 3 3 4 4 4 4 4 3 3 3 2 1 1 1 1 0 0 0 0 1 1 1 2 2 2 1 1 1 1 1 1
6 6 7 6 4 2 4 7 8 6 4 3 3 3 2 2 3 4 4 4 3 3 3 3 2 1 1 0 0 0 -0 0 0 1 1 1 2 2 2 1 1 1 1 1 1
6 6 6 5 3 3 6 8 8 6 5 3 2 2 1 1 1 2 3 3 3 3 3 3 2 2 1 1 0 0 0 0 0 1 1 2 2 1 1 1 1 1 1 1 1
6 5 4 4 3 4 6 8 8 6 5 3 2 1 1 -0 0 1 2 3 3 3 3 3 2 2 1 1 1 1 0 0 1 1 1 2 2 1 1 1 1 1 1 1 2
5 5 4 3 4 4 6 8 7 6 5 4 3 1 0 -1 -1 0 1 2 2 3 2 2 2 2 2 1 1 1 1 0 1 1 1 2 1 1 1 1 1 1 1 1 1
5 4 4 4 4 5 6 7 7 6 5 4 3 2 0 -1 -1 -1 0 1 1 2 1 1 1 1 1 1 1 1 1 1 1 1 1 1 1 1 1 1 1 1 2 1 1
5 5 4 4 5 5 6 7 7 6 4 4 3 2 0 -0 -1 -1 -0 0 1 1 1 1 1 1 1 1 1 1 1 1 1 1 1 1 2 1 1 1 1 1 1 1 1
5 5 4 4 5 5 7 8 7 6 4 4 3 1 0 0 -0 -0 -0 0 0 0 0 -0 0 1 1 0 1 1 1 1 0 1 1 2 2 1 1 1 1 1 1 1 1